Flag for Brazil Weather past 2 weeks in Santos, São Paulo, Brazil

Now
75 °F

Sunny.


Feels Like: 78 °F
Forecast: 56 / 78 °F
Wind: 5 mph from East

Location: Sao Paulo Airport

Current Time: Jul 22, 2014 at 4:53:32 PM

Latest Report: Jul 22, 2014 at 2:00 PM


Visibility: 10 mi

Pressure: 30.21 "Hg

Humidity: 44%

Dew point: 52 °F

Location of SantosLocation

Historic Weather in Santos — Graph

°F

Santos temperature yesterday

Maximum temperature yesterday: 70 °F (at 3:00 PM)
Minimum temperature yesterday: 52 °F (at 12:00 AM)
Average temperature yesterday: 58 °F

Past Weeks' High & Low Weather Summary

 TemperatureHumidityPressure
High79 °F (Jul 17, 2:00 PM)88% (Jul 8, 1:00 AM)30.42 "Hg (Jul 8, 1:00 AM)
Low52 °F (Jul 20, 6:00 AM)32% (Jul 20, 12:00 PM)30.09 "Hg (Jul 18, 3:00 AM)
Average61 °F72%30.27 "Hg
* Reported Jul 7 2:00 PM — Jul 22 2:00 PM, Santos, Weather by CustomWeather, © 2014

Note: Actual official high and low records may vary slightly from our data, if they occured in-between our weather recording intervals... More about our weather records

Advertising

Santos weather history for previous 24 hours

 ConditionsComfort  
Time TempWeatherWind HumidityBarometerVisibility
2:00 PM
Jul 22
75 °FSunny.5 mph44%30.21 "Hg10 mi
1:00 PM72 °FSunny.5 mph50%30.21 "Hg10 mi
12:00 PM70 °FSunny.6 mph57%30.24 "Hg10 mi
11:00 AM64 °FClear.6 mph64%30.30 "Hg4 mi
10:00 AM61 °FHaze.5 mph72%30.30 "Hg3 mi
9:00 AM59 °FPartly sunny.8 mph77%30.30 "Hg3 mi
8:00 AM55 °FFog.7 mph82%30.27 "Hg2 mi
7:00 AM57 °FFog.5 mph82%30.27 "Hg3 mi
6:00 AM55 °FFog.7 mph88%30.24 "Hg3 mi
5:00 AM57 °FFog.7 mph82%30.24 "Hg3 mi
4:00 AM55 °FMostly cloudy.12 mph88%30.24 "Hg4 mi
3:00 AM55 °FFog.9 mph88%30.24 "Hg3 mi
2:00 AM55 °FFog.3 mph82%30.24 "Hg3 mi
1:00 AM55 °FPassing clouds.5 mph82%30.27 "Hg4 mi
12:00 AM55 °FPassing clouds.5 mph82%30.30 "Hg4 mi
11:00 PM
Jul 21
57 °FFog.5 mph82%30.30 "Hg3 mi
10:00 PM55 °FFog.7 mph88%30.27 "Hg2 mi
9:00 PM57 °FFog.7 mph82%30.27 "Hg3 mi
8:00 PM55 °FPassing clouds.8 mph88%30.27 "Hg4 mi
7:00 PM57 °FPassing clouds.9 mph77%30.24 "Hg4 mi
6:00 PM57 °FClear.10 mph82%30.24 "Hg10 mi
5:00 PM63 °FClear.12 mph68%30.24 "Hg10 mi
4:00 PM70 °FSunny.7 mph50%30.21 "Hg10 mi
Weather by CustomWeather, © 2014

See weather overviewHow to use our weather pages